Probability
0 1 3 5 7 9 10 9 7 6 4 1 0 0 0 0 1 1 1 0 0 0 0 0 0 0 0 0 0 0 0 0 0 0 0 0 0 0 0 0 0 0 0
1 2 3 5 7 8 9 9 8 7 5 2 0 0 0 0 0 1 1 1 0 0 0 0 0 0 0 0 0 0 0 0 0 0 0 0 0 0 0 0 0 0 0
3 4 4 5 5 7 9 10 8 8 6 3 0 0 0 0 0 0 1 1 1 1 0 0 0 1 1 1 1 1 0 0 0 0 0 0 0 0 0 0 0 0 0
4 5 6 5 4 6 9 9 7 7 6 3 1 0 0 0 0 0 0 1 2 2 1 0 0 1 1 2 2 1 0 0 0 0 0 0 0 0 0 0 0 0 0
3 6 6 4 3 5 7 6 5 5 6 4 1 1 2 2 1 1 1 1 2 3 2 1 1 1 1 3 4 3 1 0 0 0 0 0 0 0 0 0 0 0 0
4 6 6 5 4 4 4 3 3 4 5 5 2 2 3 4 4 3 2 2 3 3 3 3 2 1 1 2 4 3 1 0 0 0 0 0 0 0 0 0 0 0 0
5 6 6 6 5 4 3 2 3 3 4 4 2 2 3 3 3 3 3 3 3 3 3 3 3 3 2 1 2 2 1 0 0 0 0 0 0 0 0 0 0 0 0
5 5 5 5 5 4 4 3 3 2 2 3 2 2 2 1 1 2 3 3 3 3 3 3 3 3 3 1 0 0 0 0 0 0 0 0 0 0 0 0 0 0 0
4 4 3 3 3 4 5 5 3 1 1 2 3 2 1 0 0 1 2 2 2 2 2 2 2 2 2 2 1 0 0 0 0 0 0 0 0 0 0 0 0 0 0
3 3 2 1 1 2 4 5 3 1 0 1 3 3 2 1 0 1 1 1 1 1 1 1 1 1 1 1 1 0 0 0 0 0 0 0 0 0 0 0 0 0 0
3 3 1 0 0 1 2 4 3 1 0 1 2 3 2 1 0 0 0 0 0 0 0 0 0 0 0 0 0 0 0 0 0 0 0 0 0 0 0 0 0 0 0
4 3 1 0 0 0 1 2 2 1 0 0 1 2 2 1 0 0 0 0 0 0 0 0 0 0 0 0 0 0 0 0 0 0 0 0 0 0 0 0 0 0 0
5 2 0 0 0 0 0 1 1 0 0 0 0 1 2 2 1 0 0 0 0 0 0 0 0 0 0 0 0 0 0 0 0 0 0 0 0 0 0 0 0 0 0
4 2 0 0 0 0 0 0 0 0 0 0 0 1 2 2 1 0 0 0 0 0 0 0 0 0 0 0 0 0 0 0 0 0 0 0 0 0 0 0 0 0 0
1 1 0 0 0 0 0 0 0 0 0 0 0 0 1 1 0 0 0 0 0 0 0 0 0 0 0 0 0 0 0 0 0 0 0 0 0 0 0 0 0 0 0
0 0 0 0 0 0 0 0 0 0 0 0 0 0 0 0 0 0 0 0 0 0 0 0 0 0 0 0 0 0 0 0 0 0 0 0 0 0 0 0 0 0 0
0 0 0 0 0 0 0 0 0 0 0 0 0 0 0 0 0 0 0 0 0 0 0 0 0 0 0 0 0 0 0 0 0 0 0 0 0 0 0 0 0 0 0
0 0 0 0 0 0 0 0 0 0 0 0 0 0 0 0 0 0 0 0 0 0 0 0 0 0 0 0 0 0 0 0 0 0 0 0 0 0 0 0 0 0 0
0 0 0 0 0 0 0 0 0 0 0 0 0 0 0 0 0 0 0 0 0 0 0 0 0 0 0 0 0 0 0 0 0 0 0 0 0 0 0 0 0 0 0
0 0 0 0 0 0 0 0 0 0 0 0 0 0 0 0 0 0 0 0 0 0 0 0 0 0 0 0 0 0 0 0 0 0 0 0 0 0 0 0 0 0 0
0 0 0 0 0 0 0 0 0 0 0 0 0 0 0 0 0 0 0 0 0 0 0 0 0 0 0 0 0 0 0 0 0 0 0 0 0 0 0 0 0 0 0
0 0 0 0 0 0 0 0 0 0 0 0 0 0 0 0 0 0 0 0 0 0 0 0 0 0 0 0 0 0 0 0 0 0 0 0 0 0 0 0 0 0 0
0 0 0 0 0 0 0 0 0 0 0 0 0 0 0 0 0 0 0 0 0 0 0 0 0 0 0 0 0 0 0 0 0 0 0 0 0 0 0 0 0 0 0
0 0 0 0 0 0 0 0 0 0 0 0 0 0 0 0 0 0 0 0 0 0 0 0 0 0 0 0 0 0 0 0 0 0 0 0 0 0 0 0 0 0 0
0 0 0 0 0 0 0 0 0 0 0 0 0 0 0 0 0 0 0 0 0 0 0 0 0 0 0 0 0 0 0 0 0 0 0 0 0 0 0 0 0 0 0
0 0 0 0 0 0 0 0 0 0 0 0 0 0 0 0 0 0 0 0 0 0 0 0 0 0 0 0 0 0 0 0 0 0 0 0 0 0 0 0 0 0 0
Wind_Speed
4 4 3 3 4 4 5 5 5 6 6 5 5 4 4 4 3 2 3 4 2 2 2 2 3 3 4 4 5 5 5 4 3 3 4 4 5 5 5 4 4 5 4
4 4 4 4 4 4 4 4 5 5 5 4 4 4 3 3 3 3 2 4 3 2 1 2 3 3 4 5 5 5 4 3 3 3 3 3 4 4 3 3 3 4 4
5 4 4 4 4 4 4 4 5 4 4 4 4 3 3 3 3 3 2 2 2 3 2 1 3 3 3 4 4 4 4 3 3 3 3 3 3 4 3 3 3 3 3
5 5 4 4 4 4 4 4 4 4 4 4 4 3 2 2 3 2 2 2 1 1 2 2 2 2 2 3 3 3 4 4 4 4 3 3 3 3 4 3 3 3 4
6 5 4 4 5 4 4 4 4 4 4 4 3 3 3 2 2 2 3 2 2 2 2 3 3 3 2 2 3 4 4 4 4 3 3 2 2 2 3 2 2 2 2
6 5 4 5 5 4 4 5 5 4 4 4 4 3 2 2 2 2 2 2 2 2 2 2 2 2 3 2 3 3 3 3 3 3 2 2 1 1 2 2 1 1 1
6 5 4 5 5 5 5 6 5 6 4 4 4 3 2 1 2 2 2 2 2 2 2 2 1 1 2 2 2 2 2 2 2 2 2 1 1 1 1 2 1 1 1
5 5 5 5 5 5 6 6 6 4 4 5 4 4 3 3 2 2 2 2 2 2 2 2 1 1 1 1 2 2 2 1 1 2 1 1 0 1 2 2 2 2 2
5 5 5 5 5 5 5 6 6 7 5 5 4 4 4 4 4 3 3 2 2 2 2 2 1 1 1 1 1 2 1 0 1 1 1 1 1 1 2 2 3 3 3
5 5 5 5 5 4 5 5 6 5 7 5 4 3 2 1 3 3 3 3 3 3 3 2 2 1 1 1 1 2 1 0 1 1 2 2 1 2 2 2 3 3 3
5 5 5 5 5 4 5 5 5 5 5 6 5 4 3 2 3 3 3 4 3 2 2 2 2 1 1 1 0 1 1 0 1 2 2 2 2 2 2 3 3 3 4
4 5 5 5 5 4 5 5 5 5 5 5 4 4 4 3 4 3 4 4 3 2 2 2 2 2 1 1 0 1 1 0 1 2 3 3 3 3 3 4 4 4 4
4 5 5 5 5 4 4 4 4 4 5 5 4 3 3 3 2 2 3 3 2 2 2 2 2 2 1 1 1 1 1 0 1 2 2 3 2 2 3 3 4 4 4
4 5 5 5 4 5 5 4 3 3 3 3 3 3 3 2 2 2 3 3 3 2 3 3 1 2 2 1 0 2 1 0 1 2 3 3 2 2 2 3 4 4 4
4 6 5 5 4 4 4 4 3 4 3 3 2 2 2 1 1 2 2 3 3 3 3 2 2 1 1 1 1 1 1 0 1 2 2 2 2 2 2 3 4 4 4
5 6 5 5 5 4 4 4 3 3 3 3 2 3 2 1 1 1 1 1 1 2 2 1 1 1 1 1 0 1 1 0 1 2 2 2 2 2 2 3 4 4 5
6 6 6 5 5 5 5 4 4 4 4 3 3 3 2 2 2 1 1 1 1 1 2 1 1 1 1 1 1 1 1 1 1 1 2 2 2 2 3 3 4 5 5
6 6 6 5 5 5 5 5 5 5 4 4 4 3 3 2 2 2 1 1 1 1 2 2 1 1 1 1 1 1 1 1 2 2 2 2 2 3 3 4 4 5 6
5 5 6 5 5 5 5 5 5 5 4 4 4 4 3 3 3 2 2 1 1 1 1 1 1 1 1 1 1 1 1 2 2 2 2 2 3 3 4 5 5 5 6
6 6 5 5 5 4 5 5 5 4 4 3 3 3 3 3 3 3 2 2 2 1 2 2 2 1 1 1 1 1 1 2 2 2 2 3 3 4 5 5 5 5 6
6 5 5 5 5 4 4 5 5 4 4 3 3 2 2 3 2 2 2 2 2 2 2 2 2 1 1 1 2 1 2 2 2 2 2 3 3 3 3 4 5 6 7
5 5 5 5 5 3 5 6 5 4 4 4 3 3 2 3 3 3 2 2 2 3 3 2 2 3 3 2 1 1 2 2 2 1 3 4 3 4 3 3 6 8 9
6 5 5 5 5 5 7 6 5 4 3 3 3 3 2 2 3 3 3 2 1 1 3 3 4 4 3 3 3 3 3 3 4 2 3 4 3 4 4 4 8 9 9
5 4 4 4 4 5 7 7 6 4 3 3 3 3 3 3 3 3 2 1 1 1 2 3 3 3 3 3 3 3 3 3 3 2 3 4 4 4 5 5 7 9 9
4 4 4 4 4 4 7 7 6 3 3 2 2 3 3 3 4 4 3 2 2 1 0 1 2 2 2 2 2 2 2 3 3 3 2 3 3 5 5 5 5 8 9
4 4 4 4 4 4 6 7 6 3 3 3 2 2 3 4 4 4 4 3 3 3 2 1 1 1 1 1 2 3 3 3 3 3 1 2 3 3 4 3 4 5 6
Wind_Direction
180 177 177 176 177 175 177 178 177 175 177 173 175 179 176 176 169 156 125 101 95 114 121 130 138 138 138 134 129 120 111 100 97 87 75 64 56 53 52 48 50 48 48
186 182 182 181 179 180 181 182 178 177 177 176 176 180 181 175 176 170 153 129 107 93 128 156 152 137 138 139 133 127 118 116 112 99 86 71 61 56 49 42 44 43 38
190 188 187 184 180 179 178 180 175 177 173 172 174 178 177 181 177 173 164 155 139 115 96 132 133 118 126 134 134 134 128 124 119 103 93 79 67 57 50 50 44 41 36
194 192 190 186 179 177 178 178 177 176 174 176 176 173 175 177 183 173 165 163 163 161 127 103 108 116 127 135 133 127 122 116 107 97 90 85 71 56 43 48 47 46 42
195 194 195 187 180 178 179 178 181 180 176 172 171 169 171 175 180 178 180 175 181 196 186 130 110 90 94 124 134 131 123 118 110 104 97 88 75 53 39 41 43 44 37
197 195 192 189 185 180 178 179 178 179 178 168 157 153 160 173 179 187 197 188 184 192 199 180 162 122 88 97 123 124 124 124 119 109 100 82 54 25 18 16 22 26 19
196 197 190 188 191 187 183 181 175 174 173 164 155 149 139 156 179 190 201 196 186 187 186 189 194 168 132 110 110 112 116 125 128 120 103 85 29 358 344 342 324 324 334
196 200 193 189 189 186 184 183 177 174 176 185 180 173 179 182 188 206 200 199 199 181 186 192 184 170 149 156 112 109 107 144 157 149 155 177 311 321 322 322 314 314 319
195 198 197 193 190 190 189 187 185 184 184 192 203 202 195 195 170 173 197 201 197 190 187 184 179 172 170 165 149 136 114 123 214 209 211 225 289 310 318 319 319 312 309
195 194 196 193 190 190 190 191 191 196 194 192 199 227 258 193 179 164 170 192 200 202 195 188 180 171 167 145 79 67 96 56 247 254 255 255 271 287 302 311 319 328 327
190 188 191 191 193 193 191 188 186 194 201 202 197 191 189 202 218 189 178 175 185 205 213 209 192 194 181 170 266 65 90 294 259 254 262 268 290 302 310 322 320 315 314
185 187 191 191 193 193 192 189 188 193 198 203 204 203 195 194 201 201 196 187 186 184 196 211 212 204 193 201 321 67 108 255 297 277 279 278 283 299 305 310 310 312 310
185 187 188 191 190 191 189 185 190 193 196 195 200 204 209 216 201 197 178 180 185 175 186 208 224 219 212 231 244 130 125 222 305 295 283 288 298 312 322 326 327 326 323
189 186 188 187 185 187 185 181 182 188 194 198 202 201 196 200 193 183 174 174 179 188 201 204 201 223 218 232 297 187 201 114 324 315 303 304 320 335 328 324 322 324 326
186 185 184 182 184 185 182 180 181 178 178 183 190 193 200 193 189 189 183 191 190 196 203 189 183 214 237 240 214 209 232 77 303 301 312 320 338 337 332 327 324 326 321
184 181 179 180 182 183 185 186 183 180 179 178 178 179 181 180 177 182 179 200 225 215 209 181 187 201 274 266 220 245 256 254 251 272 297 322 330 319 321 320 320 317 312
182 181 180 181 181 183 186 187 186 181 176 173 171 176 186 182 168 168 159 157 187 209 208 209 194 194 253 247 219 260 293 285 286 296 300 299 301 300 305 306 308 306 304
182 181 182 183 184 185 186 186 183 181 182 180 182 184 190 171 170 177 161 158 178 210 207 211 211 217 255 241 245 297 328 317 303 313 296 280 278 286 297 299 299 300 300
177 179 180 183 185 183 183 185 183 180 181 186 187 189 191 176 176 180 172 169 166 161 213 211 219 244 258 238 256 283 290 292 299 288 268 268 282 292 295 292 293 294 296
177 179 178 179 181 183 183 178 174 174 178 183 185 189 191 184 182 181 174 177 169 162 174 188 205 227 242 287 269 267 276 283 292 291 276 288 291 289 285 286 288 291 295
177 177 176 173 174 180 182 175 174 176 179 177 179 183 178 168 171 178 175 184 179 182 188 195 210 217 216 233 250 270 278 292 295 289 287 290 287 280 280 283 284 289 291
172 173 178 171 169 175 161 167 175 177 181 184 184 177 162 157 145 146 148 168 189 200 210 215 225 225 233 241 256 260 270 284 289 292 293 290 285 281 288 287 290 291 290
166 168 171 171 170 163 153 153 157 171 178 183 182 173 171 160 163 167 155 162 186 249 254 243 233 241 246 241 239 247 254 268 277 287 283 279 281 284 293 288 287 283 286
162 165 167 171 165 158 153 155 154 165 168 177 182 180 184 183 176 168 163 173 207 241 255 252 247 262 269 262 248 255 258 270 286 284 276 275 285 287 293 286 275 275 283
158 162 165 164 166 163 157 159 160 161 161 172 186 192 197 196 177 174 179 184 207 239 297 266 295 308 312 292 260 238 240 248 270 275 268 268 286 297 290 280 277 279 284
156 155 157 165 172 175 167 167 172 172 172 173 180 196 201 205 196 195 204 204 219 236 235 242 265 287 274 243 227 243 245 248 268 269 249 269 285 306 294 277 287 291 287